EW6167 Weather Reports


Display with metric or nautical units.
time (UTC)temp
F
wind
direction
speed
MPH
gust
MPH
rain 1hr
in
rain 24hr
in
rain mn
in
humidity
%
barometer
mb
20260906154513 57 342 4.0 0.0 0.00 0.00 0.00 61 1010.8
20260906154020 57 350 5.0 0.0 0.00 0.00 0.00 61 1010.7
20260906153532 57 344 3.0 0.0 0.00 0.00 0.00 60 1010.8
20260906153043 57 346 3.0 0.0 0.00 0.00 0.00 61 1010.9
20260906152601 57 332 3.0 0.0 0.00 0.00 0.00 62 1011.0
20260906152014 56 323 3.0 0.0 0.00 0.00 0.00 62 1010.9
20260906151524 56 27 2.0 0.0 0.00 0.00 0.00 62 1011.1
20260906151032 56 15 3.0 0.0 0.00 0.00 0.00 62 1011.3
20260906150544 56 9 3.0 0.0 0.00 0.00 0.00 62 1011.4
20260906150050 57 105 2.0 0.0 0.00 0.00 0.00 60 1011.5
20260906145557 56 88 2.0 0.0 0.00 0.00 0.00 61 1011.7
20260906145002 56 108 3.0 0.0 0.00 0.00 0.00 62 1011.7
20260906144507 56 108 3.0 0.0 0.00 0.00 0.00 62 1011.8
20260906144014 55 108 2.0 0.0 0.00 0.00 0.00 63 1011.8
20260906143520 55 108 2.0 0.0 0.00 0.00 0.00 64 1011.9
20260906143032 54 171 2.0 0.0 0.00 0.00 0.00 65 1011.8
20260906142542 53 199 2.0 0.0 0.00 0.00 0.00 66 1011.9
20260906142050 51 184 2.0 0.0 0.00 0.00 0.00 69 1011.8
20260906141549 50 184 2.0 0.0 0.00 0.00 0.00 70 1011.9
20260906141003 48 184 2.0 0.0 0.00 0.00 0.00 73 1011.9
20260906140524 47 184 2.0 0.0 0.00 0.00 0.00 74 1011.9
20260906140041 46 184 2.0 0.0 0.00 0.00 0.00 76 1011.9
20260906135546 45 184 2.0 0.0 0.00 0.00 0.00 75 1011.8
20260906135045 44 184 3.0 0.0 0.00 0.00 0.00 74 1011.8
20260906134549 44 184 3.0 0.0 0.00 0.00 0.00 71 1011.6
20260906134051 45 184 2.0 0.0 0.00 0.00 0.00 72 1011.6
20260906133601 45 184 2.0 0.0 0.00 0.00 0.00 74 1011.5
20260906133014 45 184 3.0 0.0 0.00 0.00 0.00 72 1011.6
20260906132532 45 184 3.0 0.0 0.00 0.00 0.00 73 1011.7
20260906132050 44 184 4.0 0.0 0.00 0.00 0.00 75 1011.7
20260906131605 44 184 4.0 0.0 0.00 0.00 0.00 73 1011.7
20260906131014 44 184 4.0 0.0 0.00 0.00 0.00 72 1011.4
20260906130525 44 184 4.0 0.0 0.00 0.00 0.00 72 1011.2
20260906130039 43 184 4.0 0.0 0.00 0.00 0.00 75 1011.2
20260906125559 42 184 3.0 0.0 0.00 0.00 0.00 74 1011.3
20260906125104 42 184 4.0 0.0 0.00 0.00 0.00 73 1011.3
20260906124518 43 184 3.0 0.0 0.00 0.00 0.00 71 1011.2
20260906124034 43 184 3.0 0.0 0.00 0.00 0.00 73 1011.2
20260906123549 42 184 3.0 0.0 0.00 0.00 0.00 74 1011.2
20260906123100 42 184 3.0 0.0 0.00 0.00 0.00 73 1011.1
20260906122515 43 184 4.0 0.0 0.00 0.00 0.00 72 1011.0
20260906122025 43 184 3.0 0.0 0.00 0.00 0.00 72 1011.0
20260906121534 44 184 3.0 0.0 0.00 0.00 0.00 71 1010.9
20260906121048 44 185 4.0 0.0 0.00 0.00 0.00 71 1010.9
20260906120558 44 193 4.0 0.0 0.00 0.00 0.00 70 1010.9
20260906120104 45 193 3.0 0.0 0.00 0.00 0.00 70 1010.7
20260906115526 45 199 1.0 0.0 0.00 0.00 0.00 70 1010.7
20260906115029 45 200 1.0 0.0 0.00 0.00 0.00 70 1010.6
20260906114539 45 200 2.0 0.0 0.00 0.00 0.00 69 1010.5
20260906114049 45 200 3.0 0.0 0.00 0.00 0.00 70 1010.4
20260906113601 45 200 3.0 0.0 0.00 0.00 0.00 70 1010.2
20260906113003 45 200 4.0 0.0 0.00 0.00 0.00 70 1010.0
20260906112521 45 200 4.0 0.0 0.00 0.00 0.00 70 1009.7
20260906112039 45 200 4.0 0.0 0.00 0.00 0.00 69 1009.5
20260906111545 44 200 4.0 0.0 0.00 0.00 0.00 69 1009.6
20260906111055 44 200 5.0 0.0 0.00 0.00 0.00 69 1009.5
20260906110504 44 200 5.0 0.0 0.00 0.00 0.00 69 1009.4
20260906110014 44 200 4.0 0.0 0.00 0.00 0.00 69 1009.4
20260906105537 45 183 5.0 0.0 0.00 0.00 0.00 68 1009.4
20260906105046 45 191 4.0 0.0 0.00 0.00 0.00 68 1009.3
20260906104629 45 187 4.0 0.0 0.00 0.00 0.00 67 1009.4
20260906104025 45 195 4.0 0.0 0.00 0.00 0.00 67 1009.3
20260906103548 45 204 3.0 0.0 0.00 0.00 0.00 67 1009.4
20260906103103 45 201 3.0 0.0 0.00 0.00 0.00 66 1009.3
20260906102513 45 201 3.0 0.0 0.00 0.00 0.00 66 1009.2
20260906102034 45 201 3.0 0.0 0.00 0.00 0.00 66 1009.2
20260906101556 45 201 3.0 0.0 0.00 0.00 0.00 65 1009.1
20260906101003 45 201 3.0 0.0 0.00 0.00 0.00 65 1009.1
20260906100522 45 201 3.0 0.0 0.00 0.00 0.00 65 1009.2
20260906100042 45 198 4.0 0.0 0.00 0.00 0.00 64 1009.1
20260906095549 46 200 4.0 0.0 0.00 0.00 0.00 63 1009.1
20260906095104 46 186 5.0 0.0 0.00 0.00 0.00 63 1008.9
20260906094513 46 294 5.0 0.0 0.00 0.00 0.00 63 1009.0
20260906094038 46 294 5.0 0.0 0.00 0.00 0.00 63 1008.9
20260906093554 46 294 5.0 0.0 0.00 0.00 0.00 64 1009.0
20260906093124 46 294 5.0 0.0 0.00 0.00 0.00 63 1009.0
20260906092517 46 294 6.0 0.0 0.00 0.00 0.00 63 1008.9
20260906092031 46 294 5.0 0.0 0.00 0.00 0.00 62 1008.9
20260906091537 46 294 5.0 0.0 0.00 0.00 0.00 62 1008.9
20260906091048 46 294 4.0 0.0 0.00 0.00 0.00 61 1008.9
20260906090559 46 294 4.0 0.0 0.00 0.00 0.00 61 1008.9
20260906090103 46 294 4.0 0.0 0.00 0.00 0.00 61 1009.0
20260906085520 47 294 4.0 0.0 0.00 0.00 0.00 60 1009.1
20260906085035 47 294 3.0 0.0 0.00 0.00 0.00 59 1009.1
20260906084540 48 302 2.0 0.0 0.00 0.00 0.00 57 1009.0
20260906084044 49 302 1.0 0.0 0.00 0.00 0.00 55 1009.2
20260906083547 49 302 0.0 0.0 0.00 0.00 0.00 56 1008.8
20260906083055 50 302 0.0 0.0 0.00 0.00 0.00 55 1008.9
20260906082605 50 302 2.0 0.0 0.00 0.00 0.00 55 1008.9
20260906082104 50 302 3.0 0.0 0.00 0.00 0.00 55 1008.8
20260906081521 51 302 4.0 0.0 0.00 0.00 0.00 55 1008.8
20260906081038 51 302 4.0 0.0 0.00 0.00 0.00 53 1008.9
20260906080547 52 302 4.0 0.0 0.00 0.00 0.00 52 1009.0
20260906080055 52 302 4.0 0.0 0.00 0.00 0.00 52 1009.0
20260906075504 51 302 4.0 0.0 0.00 0.00 0.00 54 1009.2
20260906075021 51 302 5.0 0.0 0.00 0.00 0.00 55 1009.2
20260906074535 50 290 6.0 0.0 0.00 0.00 0.00 56 1009.2
20260906074040 50 269 7.0 0.0 0.00 0.00 0.00 57 1009.3
20260906073541 50 250 8.0 0.0 0.00 0.00 0.00 57 1009.3
20260906073048 50 267 8.0 0.0 0.00 0.00 0.00 58 1009.3
20260906072555 49 351 6.0 0.0 0.00 0.00 0.00 58 1009.4
20260906072057 50 35 5.0 0.0 0.00 0.00 0.00 56 1009.4
20260906071503 51 202 6.0 0.0 0.00 0.00 0.00 55 1008.9
20260906071008 51 200 7.0 0.0 0.00 0.00 0.00 55 1008.9
20260906070518 51 199 9.0 0.0 0.00 0.00 0.00 55 1009.0
20260906070026 51 211 9.0 0.0 0.00 0.00 0.00 54 1009.0
20260906065534 52 216 9.0 0.0 0.00 0.00 0.00 54 1009.0
20260906065039 52 221 7.0 0.0 0.00 0.00 0.00 53 1009.0
20260906064546 51 219 6.0 0.0 0.00 0.00 0.00 54 1008.9
20260906064053 52 203 8.0 0.0 0.00 0.00 0.00 54 1008.8
20260906063549 51 211 8.0 0.0 0.00 0.00 0.00 54 1008.9
20260906063049 51 221 7.0 0.0 0.00 0.00 0.00 54 1009.1
20260906062549 52 234 6.0 0.0 0.00 0.00 0.00 54 1009.2
20260906062053 52 227 6.0 0.0 0.00 0.00 0.00 53 1009.2
20260906061558 53 226 7.0 0.0 0.00 0.00 0.00 53 1009.2
20260906061057 53 205 6.0 0.0 0.00 0.00 0.00 50 1009.3
20260906060506 52 202 3.0 0.0 0.00 0.00 0.00 52 1009.2
20260906060020 51 179 2.0 0.0 0.00 0.00 0.00 52 1009.5
20260906055533 51 188 3.0 0.0 0.00 0.00 0.00 53 1009.3
20260906055042 51 188 4.0 0.0 0.00 0.00 0.00 52 1009.3
20260906054549 51 193 4.0 0.0 0.00 0.00 0.00 52 1009.3
20260906054053 51 192 5.0 0.0 0.00 0.00 0.00 52 1009.3
20260906053506 51 192 5.0 0.0 0.00 0.00 0.00 51 1009.3
20260906053016 52 183 6.0 0.0 0.00 0.00 0.00 51 1009.3
20260906052525 53 169 7.0 0.0 0.00 0.00 0.00 51 1009.4
20260906052029 52 170 6.0 0.0 0.00 0.00 0.00 53 1009.5
20260906051536 52 159 6.0 0.0 0.00 0.00 0.00 53 1009.5
20260906051050 53 181 7.0 0.0 0.00 0.00 0.00 53 1009.5
20260906050556 53 185 7.0 0.0 0.00 0.00 0.00 53 1009.4
20260906050124 53 204 7.0 0.0 0.00 0.00 0.00 52 1009.4
20260906045518 54 196 6.0 0.0 0.00 0.00 0.00 51 1009.6
20260906045032 54 185 5.0 0.0 0.00 0.00 0.00 51 1009.7
20260906044538 54 189 4.0 0.0 0.00 0.00 0.00 49 1009.7
20260906044053 55 178 4.0 0.0 0.00 0.00 0.00 48 1009.7
20260906043557 55 173 5.0 0.0 0.00 0.00 0.00 49 1009.8
20260906043009 55 169 5.0 0.0 0.00 0.00 0.00 48 1009.8
20260906042528 56 189 5.0 0.0 0.00 0.00 0.00 45 1009.8
20260906042039 58 164 6.0 0.0 0.00 0.00 0.00 43 1009.7
20260906041543 59 216 8.0 0.0 0.00 0.00 0.00 42 1009.7
20260906041055 59 211 8.0 0.0 0.00 0.00 0.00 42 1009.6
20260906040559 59 202 9.0 0.0 0.00 0.00 0.00 42 1009.7
20260906040003 59 213 9.0 0.0 0.00 0.00 0.00 42 1009.7
20260906035606 59 212 8.0 0.0 0.00 0.00 0.00 42 1009.7
20260906035102 59 223 7.0 0.0 0.00 0.00 0.00 42 1009.7
20260906034556 59 215 7.0 0.0 0.00 0.00 0.00 42 1009.7
20260906034007 59 217 7.0 0.0 0.00 0.00 0.00 41 1009.7
20260906033514 59 213 6.0 0.0 0.00 0.00 0.00 40 1009.4
20260906033053 60 218 6.0 0.0 0.00 0.00 0.00 40 1009.3
20260906032533 60 201 6.0 0.0 0.00 0.00 0.00 40 1009.3
20260906032025 60 200 6.0 0.0 0.00 0.00 0.00 40 1009.2
20260906031515 59 208 6.0 0.0 0.00 0.00 0.00 40 1009.2
20260906031013 59 210 6.0 0.0 0.00 0.00 0.00 41 1009.1
20260906030513 58 213 6.0 0.0 0.00 0.00 0.00 40 1009.0
20260906030013 59 212 5.0 0.0 0.00 0.00 0.00 39 1008.9
20260906025508 59 208 5.0 0.0 0.00 0.00 0.00 39 1008.8
20260906025002 60 198 4.0 0.0 0.00 0.00 0.00 38 1008.7
20260906024505 60 186 4.0 0.0 0.00 0.00 0.00 38 1008.7
20260906024109 61 182 5.0 0.0 0.00 0.00 0.00 38 1008.8
20260906023607 61 176 5.0 0.0 0.00 0.00 0.00 37 1008.6
20260906023102 61 179 6.0 0.0 0.00 0.00 0.00 36 1008.6
20260906022607 62 171 5.0 0.0 0.00 0.00 0.00 36 1008.4
20260906022004 62 184 5.0 0.0 0.00 0.00 0.00 35 1008.2
20260906021514 63 164 5.0 0.0 0.00 0.00 0.00 34 1008.2
20260906021105 63 157 4.0 0.0 0.00 0.00 0.00 33 1008.2
20260906020605 64 160 4.0 0.0 0.00 0.00 0.00 33 1008.2
20260906020108 66 196 4.0 0.0 0.00 0.00 0.00 31 1008.1
20260906015603 67 196 5.0 0.0 0.00 0.00 0.00 30 1007.9
20260906015058 68 193 5.0 0.0 0.00 0.00 0.00 30 1008.0
20260906014609 69 195 5.0 0.0 0.00 0.00 0.00 29 1007.9
20260906014050 70 190 5.0 0.0 0.00 0.00 0.00 28 1007.9
20260906013539 71 181 5.0 0.0 0.00 0.00 0.00 27 1007.7
20260906013048 72 203 5.0 0.0 0.00 0.00 0.00 27 1007.9
20260906012545 73 207 7.0 0.0 0.00 0.00 0.00 26 1007.8
20260906012046 73 205 8.0 0.0 0.00 0.00 0.00 26 1007.7
20260906011558 74 209 8.0 0.0 0.00 0.00 0.00 25 1007.7
20260906011058 74 194 9.0 0.0 0.00 0.00 0.00 25 1007.6
20260906010501 74 180 10.0 0.0 0.00 0.00 0.00 25 1007.6
20260906005509 75 196 9.0 0.0 0.00 0.00 0.00 24 1007.7
20260906005052 75 201 9.0 0.0 0.00 0.00 0.00 24 1007.6
20260906004551 75 200 10.0 0.0 0.00 0.00 0.00 24 1007.5
20260906004043 75 180 12.0 0.0 0.00 0.00 0.00 24 1007.7
20260906003548 75 198 12.0 0.0 0.00 0.00 0.00 24 1007.6
20260906003101 75 192 12.0 0.0 0.00 0.00 0.00 24 1007.6
20260906002555 75 216 12.0 0.0 0.00 0.00 0.00 24 1007.6
20260906002101 75 200 12.0 0.0 0.00 0.00 0.00 23 1007.6
20260906001559 76 196 13.0 0.0 0.00 0.00 0.00 23 1007.5
20260906001012 76 209 15.0 0.0 0.00 0.00 0.00 23 1007.6
20260906000526 76 221 15.0 0.0 0.00 0.00 0.00 22 1007.5
20260906000042 76 211 15.0 0.0 0.00 0.00 0.00 22 1007.5
20260905235549 76 221 14.0 0.0 0.00 0.00 0.00 22 1007.5
20260905235057 76 169 15.0 0.0 0.00 0.00 0.00 22 1007.4
20260905234503 77 197 15.0 0.0 0.00 0.00 0.00 21 1007.5
20260905234010 76 189 15.0 0.0 0.00 0.00 0.00 22 1007.5
20260905233519 76 197 14.0 0.0 0.00 0.00 0.00 21 1007.6
20260905233040 76 196 11.0 0.0 0.00 0.00 0.00 21 1007.5
20260905232549 77 173 14.0 0.0 0.00 0.00 0.00 21 1007.5
20260905232056 77 196 15.0 0.0 0.00 0.00 0.00 20 1007.4
20260905231504 77 217 13.0 0.0 0.00 0.00 0.00 20 1007.4
20260905231017 77 208 14.0 0.0 0.00 0.00 0.00 21 1007.5
20260905230533 77 197 17.0 0.0 0.00 0.00 0.00 20 1007.5
20260905230059 77 207 17.0 0.0 0.00 0.00 0.00 20 1007.6
20260905225550 77 217 18.0 0.0 0.00 0.00 0.00 20 1007.6
20260905225011 77 209 18.0 0.0 0.00 0.00 0.00 19 1007.8
20260905224524 77 226 18.0 0.0 0.00 0.00 0.00 18 1007.6
20260905224040 77 222 19.0 0.0 0.00 0.00 0.00 18 1007.9
20260905223554 77 195 18.0 0.0 0.00 0.00 0.00 20 1008.0
20260905223005 77 180 18.0 0.0 0.00 0.00 0.00 20 1007.9
20260905222517 77 219 18.0 0.0 0.00 0.00 0.00 18 1007.9
20260905222041 77 200 16.0 0.0 0.00 0.00 0.00 18 1007.9
20260905221600 77 241 14.0 0.0 0.00 0.00 0.00 21 1007.9
20260905221011 76 184 17.0 0.0 0.00 0.00 0.00 22 1008.3
20260905220533 77 209 17.0 0.0 0.00 0.00 0.00 22 1008.2
20260905220046 77 210 18.0 0.0 0.00 0.00 0.00 21 1008.1
20260905215603 76 207 21.0 0.0 0.00 0.00 0.00 21 1008.3
20260905215007 77 227 19.0 0.0 0.00 0.00 0.00 21 1008.3
20260905214513 77 197 18.0 0.0 0.00 0.00 0.00 22 1008.5
20260905214033 78 207 15.0 0.0 0.00 0.00 0.00 22 1008.4
20260905213549 77 211 15.0 0.0 0.00 0.00 0.00 22 1008.5
20260905213013 78 173 16.0 0.0 0.00 0.00 0.00 22 1008.5
20260905212523 78 205 17.0 0.0 0.00 0.00 0.00 22 1008.5
20260905212029 78 169 15.0 0.0 0.00 0.00 0.00 22 1008.4
20260905211546 77 169 15.0 0.0 0.00 0.00 0.00 24 1008.5
20260905211054 77 163 16.0 0.0 0.00 0.00 0.00 23 1008.4
20260905210513 77 142 16.0 0.0 0.00 0.00 0.00 23 1008.3
20260905210030 77 224 12.0 0.0 0.00 0.00 0.00 22 1008.3
20260905205541 77 187 12.0 0.0 0.00 0.00 0.00 24 1008.4
20260905205051 75 212 12.0 0.0 0.00 0.00 0.00 26 1008.4
20260905204605 75 167 14.0 0.0 0.00 0.00 0.00 25 1008.5
20260905204019 75 151 15.0 0.0 0.00 0.00 0.00 24 1008.6
20260905203534 74 202 15.0 0.0 0.00 0.00 0.00 25 1008.5
20260905203056 75 217 14.0 0.0 0.00 0.00 0.00 24 1008.4
20260905202559 76 171 13.0 0.0 0.00 0.00 0.00 25 1008.5
20260905202005 74 208 9.0 0.0 0.00 0.00 0.00 33 1008.6
20260905201522 72 240 6.0 0.0 0.00 0.00 0.00 31 1008.6
20260905201041 71 202 6.0 0.0 0.00 0.00 0.00 38 1008.9
20260905200548 70 323 8.0 0.0 0.00 0.00 0.00 39 1008.8
20260905200013 69 309 10.0 0.0 0.00 0.00 0.00 39 1008.8
20260905195518 69 320 9.0 0.0 0.00 0.00 0.00 39 1008.8
20260905195032 70 360 7.0 0.0 0.00 0.00 0.00 40 1008.9
20260905194540 69 17 6.0 0.0 0.00 0.00 0.00 41 1009.0
20260905194051 68 348 6.0 0.0 0.00 0.00 0.00 41 1009.0
20260905193506 68 315 7.0 0.0 0.00 0.00 0.00 42 1009.1
20260905193026 68 350 6.0 0.0 0.00 0.00 0.00 42 1009.0
20260905192539 67 5 8.0 0.0 0.00 0.00 0.00 43 1009.0
20260905192053 67 317 8.0 0.0 0.00 0.00 0.00 43 1009.2
20260905191555 67 5 8.0 0.0 0.00 0.00 0.00 45 1009.3
20260905191034 66 355 7.0 0.0 0.00 0.00 0.00 45 1009.2
20260905190528 66 355 6.0 0.0 0.00 0.00 0.00 45 1009.2
20260905190006 65 319 6.0 0.0 0.00 0.00 0.00 46 1009.4
20260905185501 65 336 7.0 0.0 0.00 0.00 0.00 47 1009.4
20260905185004 65 360 7.0 0.0 0.00 0.00 0.00 47 1009.4
20260905184517 64 349 6.0 0.0 0.00 0.00 0.00 48 1009.5
20260905184003 64 346 6.0 0.0 0.00 0.00 0.00 48 1009.7
20260905183505 64 11 6.0 0.0 0.00 0.00 0.00 48 1009.7
20260905183023 63 328 6.0 0.0 0.00 0.00 0.00 50 1009.9
20260905182532 63 330 6.0 0.0 0.00 0.00 0.00 50 1009.9
20260905182035 63 5 5.0 0.0 0.00 0.00 0.00 51 1010.0
20260905181536 62 12 4.0 0.0 0.00 0.00 0.00 52 1010.0
20260905181057 62 338 4.0 0.0 0.00 0.00 0.00 51 1010.1
20260905180554 62 22 4.0 0.0 0.00 0.00 0.00 52 1010.1
20260905180105 61 330 5.0 0.0 0.00 0.00 0.00 52 1010.3
20260905175518 61 355 4.0 0.0 0.00 0.00 0.00 53 1010.4
20260905175028 61 325 5.0 0.0 0.00 0.00 0.00 54 1010.4
20260905174535 60 325 6.0 0.0 0.00 0.00 0.00 54 1010.5
20260905174043 60 316 4.0 0.0 0.00 0.00 0.00 54 1010.5
20260905173546 60 311 4.0 0.0 0.00 0.00 0.00 55 1010.5
20260905173055 59 13 5.0 0.0 0.00 0.00 0.00 56 1010.6
20260905172505 60 331 5.0 0.0 0.00 0.00 0.00 55 1010.5
20260905172011 59 330 4.0 0.0 0.00 0.00 0.00 57 1010.6
20260905171529 59 324 5.0 0.0 0.00 0.00 0.00 57 1010.6
20260905171036 59 325 4.0 0.0 0.00 0.00 0.00 58 1010.6
20260905170539 58 360 5.0 0.0 0.00 0.00 0.00 58 1010.6
20260905170057 58 319 4.0 0.0 0.00 0.00 0.00 59 1010.6
20260905165502 58 349 4.0 0.0 0.00 0.00 0.00 60 1010.6
20260905165020 57 324 5.0 0.0 0.00 0.00 0.00 60 1010.7
20260905164544 57 355 5.0 0.0 0.00 0.00 0.00 61 1010.7
20260905164049 57 350 6.0 0.0 0.00 0.00 0.00 62 1010.7
20260905163507 56 347 7.0 0.0 0.00 0.00 0.00 62 1010.7
20260905163016 56 329 6.0 0.0 0.00 0.00 0.00 62 1010.6
20260905162524 56 310 6.0 0.0 0.00 0.00 0.00 63 1010.6
20260905162033 56 341 5.0 0.0 0.00 0.00 0.00 63 1010.5
20260905161541 56 340 5.0 0.0 0.00 0.00 0.00 62 1010.5
20260905161101 56 344 5.0 0.0 0.00 0.00 0.00 63 1010.5
20260905160501 56 5 3.0 0.0 0.00 0.00 0.00 62 1010.4
20260905160026 55 340 4.0 0.0 0.00 0.00 0.00 62 1010.4
20260905155533 55 325 4.0 0.0 0.00 0.00 0.00 62 1010.4
20260905155038 55 320 4.0 0.0 0.00 0.00 0.00 63 1010.3
20260905154600 55 355 5.0 0.0 0.00 0.00 0.00 63 1010.3